Tracking 31027 objects as of 19-Jul-2025
HD Live streaming from Space Station
objects crossing your sky now

ONEWEB-0144

Track ONEWEB-0144 now!
10-day predictions
ONEWEB-0144 is classified as:


NORAD ID: 47290
Int'l Code: 2020-100AJ
Perigee: 1,219.6 km
Apogee: 1,222.2 km
Inclination: 87.9 °
Period: 109.7 minutes
Semi major axis: 7591 km
RCS: Unknown
Launch date: December 18, 2020
Source: United Kingdom (UK)
Launch site: VOSTOCHNY COSMODROME (VOSTO)
Your satellite tracking list
FLOCK 3P 17
Track 1 satellite(s)




NASA's NSSDC Master Catalog

Two Line Element Set (TLE):
1 47290U 20100AJ  25199.52418330  .00000306  00000-0  81526-3 0  9991
2 47290  87.8853  56.9850 0001719  73.7156 286.4162 13.12443422220800
Source of the keplerian elements: AFSPC